Location: Eschentzwiller
(47.7125°N, 7.3981°E)
Time: 04:31:06
(UTC+00:00)

Cosmos 1244 Rocket - Pass Details

Date: 27 October 2020
Orbit: 954 x 997 km, 82.9° (Epoch: 01 December)

Event Time Altitude Azimuth Distance (km) Brightness Sun altitude
Rises 17:28:39 0° 351° (N) 3,658 7.6 -12.1°
Reaches altitude 10° 17:31:09 10° 352° (N) 2,713 6.9 -12.5°
Maximum altitude 17:37:23 85° 80° (E) 981 4.5 -13.5°
Drops below altitude 10° 17:43:38 10° 171° (S) 2,723 6.8 -14.6°
Sets 17:46:09 0° 172° (S) 3,673 7.5 -15.0°
